Flag for India Weather past 2 weeks in Chennai, Tamil Nadu, India

Now
93 °F

Scattered clouds.


Feels Like: 110 °F
Forecast: 84 / 96 °F
Wind: 12 mph from Southeast

Location: Madras / Minambakkam

Current Time: Apr 21, 2015 at 12:23:43 PM

Latest Report: Apr 21, 2015 at 11:40 AM


Visibility: 4 mi

Pressure: 29.86 "Hg

Humidity: 63%

Dew point: 79 °F

Location of ChennaiLocation

Historic Weather in Chennai — Graph

°F

Chennai temperature yesterday

Maximum temperature yesterday: 93 °F (at 11:10 AM)
Minimum temperature yesterday: 81 °F (at 3:40 AM)
Average temperature yesterday: 87 °F

Past Weeks' High & Low Weather Summary

 TemperatureHumidityPressure
High95 °F (Apr 6, 11:40 AM)94% (Apr 11, 6:10 AM)29.98 "Hg (Apr 11, 6:10 AM)
Low73 °F (Apr 14, 2:40 AM)39% (Apr 14, 12:10 PM)29.65 "Hg (Apr 6, 4:40 PM)
Average85 °F74%29.82 "Hg
* Reported Apr 6 10:40 AM — Apr 21 10:40 AM, Chennai, Weather by CustomWeather, © 2015

Note: Actual official high and low records may vary slightly from our data, if they occured in-between our weather recording intervals... More about our weather records

Advertising

Chennai weather history for previous 24 hours

 ConditionsComfort  
Time TempWeatherWind HumidityBarometerVisibility
10:40 AM
Tue, Apr 21
91 °FScattered clouds.No wind67%29.86 "Hg4 mi
10:10 AM90 °FScattered clouds.3 mph67%29.86 "Hg4 mi
9:40 AM88 °FScattered clouds.No wind75%29.89 "Hg4 mi
9:10 AM88 °FScattered clouds.No wind75%29.89 "Hg4 mi
8:40 AM86 °FScattered clouds.2 mph79%29.86 "Hg4 mi
8:10 AM86 °FScattered clouds.3 mph79%29.86 "Hg4 mi
7:40 AM84 °FScattered clouds.3 mph84%29.86 "Hg4 mi
7:10 AM84 °FScattered clouds.5 mph84%29.86 "Hg4 mi
6:40 AM82 °FScattered clouds.5 mph89%29.83 "Hg4 mi
6:10 AM82 °FPassing clouds.5 mph89%29.83 "Hg4 mi
5:40 AM82 °FPassing clouds.6 mph89%29.83 "Hg4 mi
5:10 AM84 °FPassing clouds.3 mph84%29.80 "Hg4 mi
4:40 AM84 °FPassing clouds.3 mph84%29.80 "Hg4 mi
4:10 AM84 °FPassing clouds.6 mph84%29.80 "Hg4 mi
3:40 AM84 °FPassing clouds.7 mph84%29.80 "Hg4 mi
3:10 AM84 °FPassing clouds.6 mph84%29.80 "Hg4 mi
2:40 AM84 °FPassing clouds.7 mph84%29.80 "Hg4 mi
2:10 AM86 °FPassing clouds.7 mph79%29.80 "Hg4 mi
1:40 AM86 °FPassing clouds.5 mph79%29.80 "Hg4 mi
1:10 AM86 °FPassing clouds.6 mph79%29.83 "Hg4 mi
12:40 AM86 °FPassing clouds.8 mph79%29.83 "Hg4 mi
12:10 AM86 °FPassing clouds.10 mph79%29.86 "Hg4 mi
11:40 PM
Mon, Apr 20
86 °FPassing clouds.10 mph79%29.86 "Hg4 mi
11:10 PM86 °FPassing clouds.9 mph79%29.86 "Hg4 mi
10:40 PM86 °FPassing clouds.9 mph75%29.89 "Hg4 mi
10:10 PM86 °FPassing clouds.7 mph75%29.86 "Hg4 mi
9:40 PM86 °FPassing clouds.7 mph75%29.86 "Hg4 mi
9:10 PM86 °FPassing clouds.10 mph75%29.86 "Hg4 mi
8:40 PM86 °FPassing clouds.10 mph75%29.83 "Hg4 mi
8:10 PM86 °FPassing clouds.9 mph75%29.83 "Hg4 mi
7:40 PM86 °FPassing clouds.9 mph75%29.80 "Hg4 mi
7:10 PM86 °FPassing clouds.9 mph75%29.80 "Hg4 mi
6:40 PM88 °FPassing clouds.12 mph70%29.80 "Hg5 mi
6:10 PM88 °FPassing clouds.9 mph66%29.77 "HgN/A
5:40 PM90 °FPassing clouds.12 mph63%29.77 "HgN/A
5:10 PM90 °FPassing clouds.12 mph63%29.77 "HgN/A
4:40 PM91 °FPassing clouds.12 mph59%29.74 "HgN/A
4:10 PM91 °FPassing clouds.12 mph59%29.77 "HgN/A
3:40 PM91 °FPassing clouds.12 mph59%29.77 "HgN/A
3:10 PM91 °FPassing clouds.12 mph59%29.77 "HgN/A
2:40 PM91 °FPassing clouds.12 mph59%29.80 "HgN/A
2:10 PM93 °FScattered clouds.14 mph56%29.80 "HgN/A
1:40 PM93 °FScattered clouds.12 mph56%29.80 "HgN/A
1:10 PM91 °FScattered clouds.12 mph59%29.83 "HgN/A
12:40 PM93 °FScattered clouds.13 mph56%29.83 "HgN/A
12:10 PM91 °FScattered clouds.6 mph59%29.83 "HgN/A
Weather by CustomWeather, © 2015

See weather overviewHow to use our weather pages